Flag for Switzerland Weather past 2 weeks in Zug, Zug, Switzerland

Now
49 °F

Cool.


Feels Like: 49 °F
Forecast: 46 / 54 °F
Wind: 3 mph from West

Location: Zurich Town / Ville.

Current Time: Mar 28, 2015 at 1:00:55 PM

Latest Report: Mar 28, 2015 at 12:00 PM


Visibility: N/A

Pressure: 30.18 "Hg

Humidity: 49%

Dew point: 31 °F

Location of ZugLocation

Historic Weather in Zug — Graph

°F

Zug temperature yesterday

Maximum temperature yesterday: 52 °F (at 4:00 PM)
Minimum temperature yesterday: 39 °F (at 2:00 AM)
Average temperature yesterday: 44 °F

Past Weeks' High & Low Weather Summary

 TemperatureHumidityPressure
High62 °F (Mar 18, 2:40 PM)97% (Mar 22, 1:00 AM)30.31 "Hg (Mar 22, 1:00 AM)
Low30 °F (Mar 14, 6:00 AM)34% (Mar 24, 5:00 PM)29.59 "Hg (Mar 25, 2:00 PM)
Average44 °F70%30.06 "Hg
* Reported Mar 13 11:00 AM — Mar 28 11:00 AM, Zug, Weather by CustomWeather, © 2015

Note: Actual official high and low records may vary slightly from our data, if they occured in-between our weather recording intervals... More about our weather records

Advertising

Zug weather history for previous 24 hours

 ConditionsComfort  
Time TempWeatherWind HumidityBarometerVisibility
11:00 AM
Sat, Mar 28
48 °FCool.3 mph51%30.20 "HgN/A
10:00 AM44 °FQuite cool.2 mph65%30.24 "HgN/A
9:00 AM41 °FQuite cool.2 mph72%30.26 "HgN/A
8:00 AM38 °FChilly.1 mph77%30.29 "HgN/A
7:00 AM36 °FSunny.No wind84%30.31 "HgN/A
6:00 AM36 °FChilly.1 mph81%30.30 "HgN/A
5:00 AM36 °FChilly.No wind80%30.30 "HgN/A
3:00 AM39 °FChilly.1 mph75%30.29 "HgN/A
2:00 AM40 °FChilly.No wind70%30.30 "HgN/A
1:00 AM40 °FQuite cool.2 mph67%30.31 "HgN/A
12:00 AM40 °FQuite cool.No wind69%30.31 "HgN/A
11:00 PM
Fri, Mar 27
40 °FChilly.2 mph67%30.30 "HgN/A
9:00 PM42 °FQuite cool.1 mph64%30.27 "HgN/A
8:00 PM44 °FQuite cool.3 mph55%30.24 "HgN/A
7:00 PM47 °FPassing clouds.7 mph47%30.22 "HgN/A
6:00 PM47 °FCool.8 mph47%30.18 "HgN/A
5:00 PM49 °FCool.9 mph47%30.16 "HgN/A
4:00 PM52 °FCool.13 mph44%30.13 "HgN/A
3:00 PM50 °FCool.12 mph55%30.13 "HgN/A
2:00 PM50 °FCool.12 mph50%30.12 "HgN/A
1:00 PM50 °FPartly sunny.8 mph57%30.12 "HgN/A
Weather by CustomWeather, © 2015

See weather overviewHow to use our weather pages